Regional Weather Roundup
Issued by NWS

Home | Current Version | Previous Version | Text Only | Print | Product List | Glossary On
Versions: 1 2 3 4 5 6 7 8 9 10 11 12 13 14 15 16 17 18 19 20 21 22 23 24 25 26 27 28 29 30 31 32 33 34 35 36 37 38 39 40 41 42 43 44 45 46 47 48 49 50
000
ASUS43 KMPX 081010
RWRMN
WEATHER ROUNDUP FOR MINNESOTA
NATIONAL WEATHER SERVICE TWIN CITIES/CHANHASSEN MN
400 AM CST MON FEB 08 2016


NOTE: "FAIR" INDICATES FEW OR NO CLOUDS BELOW 12,000 FEET WITH NO
SIGNIFICANT WEATHER AND/OR OBSTRUCTIONS TO VISIBILITY. N/A MEANS
CURRENT SKY AND/OR WEATHER CONDITIONS ARE NOT AVAILABLE.

MNZ060>063-068>070-081100-
   Twin Cities Metro

CITY           SKY/WX    TMP DP  RH WIND       PRES   REMARKS
TWIN CITIES    FLURRIES  15   7  70 NW18G25   29.81R WCI  -2
ST PAUL        FLURRIES  15   8  73 NW21      29.81R WCI  -2
CRYSTAL        MIX PCPN  15   6  67 NW22G29   29.80R WCI  -3
BLAINE         CLOUDY    16   9  73 NW18      29.80R WCI  -1
LAKEVILLE      FLURRIES  12   9  85 NW17      29.78S WCI  -5
EDEN PRAIRIE   CLOUDY    15   6  67 NW15G26   29.80R WCI   0
SOUTH ST PAUL  CLOUDY    16   9  73 NW12G17   29.80R WCI   3
LAKE ELMO      FLURRIES  18  10  73 NW10G16   29.79R WCI   6
$$
MNZ001>005-007-008-013>017-022>024-027-028-081100-
   Northwest Minnesota

CITY           SKY/WX    TMP DP  RH WIND       PRES   REMARKS
BEMIDJI        LGT SNOW   4  -1  79 NW14G22   29.92R WCI -14
HALLOCK        CLOUDY    10   7  85 N21G26    30.10R FOG     WCI  -9
ROSEAU         CLOUDY     7   0  72 N21G26    30.01R HAZE    WCI -13
WARROAD        FLURRIES   3  -2  78 NW15      30.00R WCI -15
CROOKSTON      LGT SNOW  10   7  85 N28G35    30.09R VSB 1   WCI -11
FOSSTON        LGT SNOW   3   0  85 NW22G29   29.99R WCI -19
DETROIT LAKES  LGT SNOW  10   7  85 N28G37    29.97R VSB 1   WCI -11
MOORHEAD         N/A     12   9  85 N24G32    30.07R WCI  -8
PARK RAPIDS    LGT SNOW   6   0  76 NW15      29.90R WCI -12
MAHNOMEN       LGT SNOW   7   2  82 N25G35    29.99R WCI -15
$$
MNZ006-009>011-018-025>026-081100-
   North Central Minnesota

CITY           SKY/WX    TMP DP  RH WIND       PRES   REMARKS
BAUDETTE       LGT SNOW   4  -2  76 NW21G28   29.93R WCI -17
FLAG ISLAND    CLOUDY     1  -2  85 NW21      29.97R WCI -20
INTL FALLS     LGT SNOW   7   1  76 NW14      29.86R WCI -10
WASKISH        LGT SNOW   5   0  78 NW12      29.93R WCI -11
LONGVILLE      CLOUDY     5   0  78 NW10G23   29.88R WCI -10
GRAND RAPIDS   CLOUDY     5   0  78 NW18G26   29.82R WCI -15
CRANE LAKE     CLOUDY     9   5  85 NW5       29.83R WCI   0
ORR            FLURRIES   7   1  78 NW12      29.78R WCI  -9
COOK           FLURRIES   7   3  85 NW10      29.80R WCI  -8
WALKER         LGT SNOW   4  -1  77 NW14G22   29.90R WCI -13
$$
MNZ012-019>021-037-081100-
   Northeast Minnesota

CITY           SKY/WX    TMP DP  RH WIND       PRES   REMARKS
DULUTH         LGT SNOW  10   5  80 N22G32    29.70R BLWGSNOWWCI -10
ELY            FLURRIES  10   7  85 N7        29.73S WCI   0
HIBBING        LGT SNOW   6   2  83 NW20      29.78R FOG     WCI -14
EVELETH        LGT SNOW  10   5  79 NW12G17   29.78R WCI  -4
DULUTH HARBOR  CLOUDY    16  10  79 NW14      29.78R WCI   1
TWO HARBORS    LGT SNOW  19  10  68 NW9G23    29.66S WCI   9
SILVER BAY     LGT SNOW  16  10  79 NW8G18    29.67R WCI   5
GRAND MARAIS     N/A     15   8  73 VRB6      29.69R WCI   6
G MARAIS ARPRT LGT SNOW   5   0  78 NW14G20   29.61S WCI -12
$$
MNZ029>031-032-039>041-046>048-054>057-064-081100-
   West Central Minnesota

CITY           SKY/WX    TMP DP  RH WIND       PRES   REMARKS
FERGUS FALLS   LGT SNOW  10   7  85 N28G45    30.02R WCI -11
WHEATON        CLOUDY    18  12  79 NW31G43   30.05R WCI  -2
MORRIS         LGT SNOW  12   9  85 N29G39    29.97R VSB 1   WCI  -9
ALEXANDRIA     LGT SNOW   8   2  76 N23G37    29.92R WCI -13
ELBOW LAKE     CLOUDY    10   6  82 NW20G31   29.99R WCI  -8
WADENA         LGT SNOW   7   1  78 N18G28    29.91R WCI -12
GLENWOOD       LGT SNOW   9   5  85 NW23G29   29.91R WCI -12
APPLETON       SNOW      16  12  86 NW32G41   29.99R VSB 1/2 WCI  -5
BENSON         LGT SNOW  12   7  79 N28G36    29.95R WCI  -9
ORTONVILLE     LGT SNOW  16  10  79 N24G32    30.01R WCI  -3
MADISON        LGT SNOW  16  12  86 N28G38    30.01S VSB 3/4 WCI  -4
WILLMAR        FLURRIES  12   7  79 NW35G40   29.92R WCI -10
$$
MNZ033>034-036-042>043-049>051-058-059-081100-
   Central Minnesota

CITY           SKY/WX    TMP DP  RH WIND       PRES   REMARKS
ST CLOUD       CLOUDY    10   2  69 NW22G31   29.84R WCI -10
SAUK CENTRE    LGT SNOW   8   4  82 NW23G31   29.90R WCI -12
PAYNESVILLE    CLOUDY    10   5  81 NW17G29   29.89S FOG     WCI  -8
AITKIN         LGT SNOW  10   1  67 NW10G18   29.83R WCI  -3
PINE RIVER     CLOUDY     7   0  72 NW16G23   29.92R WCI -11
BRAINERD       LGT SNOW   7   1  76 NW22G30   29.87R WCI -14
STAPLES        CLOUDY     5   0  78 NW17G25   29.90R HAZE    WCI -14
LONG PRAIRIE   LGT SNOW   9   3  78 NW20G25   29.89R WCI -11
LITTLE FALLS   LGT SNOW  10   1  67 NW9G24    29.88R WCI  -2
LITCHFIELD     CLOUDY    10   9  92 NW23G30   29.87R FOG     WCI -10
BUFFALO        FLURRIES  13   7  75 NW15      29.84S WCI  -3
MAPLE LAKE     CLOUDY    13   7  78 NW16G24   29.85S WCI  -3
$$
MNZ037-044-045-052-053-081100-
   East Central Minnesota

CITY           SKY/WX    TMP DP  RH WIND       PRES   REMARKS
PRINCETON      CLOUDY    12   5  73 NW14      29.82R WCI  -3
MORA           CLOUDY    12   5  73 NW18G35   29.82R HAZE    WCI  -5
CAMBRIDGE      FLURRIES  16   5  62 NW17G26   29.79R WCI   0
RUSH CITY      CLOUDY    13   7  78 NW10G18   29.80R WCI   0
MOOSE LAKE     FLURRIES  12   5  73 NW14G20   29.76R WCI  -3
HINCKLEY       CLOUDY    14   7  73 NW12      29.78R WCI   0
CLOQUET        LGT SNOW  10   5  79 NW15G28   29.74R WCI  -6
MCGREGOR       CLOUDY    10   3  72 NW18G28   29.82R WCI  -8
$$
MNZ071>073-080-081-089-090-097-098-081100-
   Southwest Minnesota

CITY           SKY/WX    TMP DP  RH WIND       PRES   REMARKS
MONTEVIDEO     SNOW      14  12  92 N28G38    29.98S VSB 1/2 WCI  -6
GRANITE FALLS  LGT SNOW  15  12  88 NW18G29   29.98R VSB 1   WCI  -1
CANBY          LGT SNOW  20  17  85 NW24G35   30.00S WCI   3
MARSHALL       LGT SNOW  14  10  85 N31G38    29.94S VSB 1   WCI  -7
REDWOOD FALLS  LGT SNOW  13   8  81 NW22G38   29.92S WCI  -6
OLIVIA         LGT SNOW  16  10  79 NW30G38   29.91R WCI  -4
PIPESTONE      CLOUDY    18  10  73 N20G29    29.94S WCI   1
WINDOM         HVY SNOW  12  10  92 NW44G52   29.87S VSB 1/4 WCI -13
WORTHINGTON    CLOUDY    16  10  79 N26       29.93R WCI  -3
JACKSON        CLOUDY    14  10  85 NW33G53   29.87S WCI  -8
TRACY          LGT SNOW  16  13  88 N29G40    29.94S VSB 1   WCI  -4
SLAYTON        LGT SNOW  15  13  94 NW24G37   29.92S WCI  -4
$$
MNZ065>067-074>077-082>085-091>093-081100-
   South Central Minnesota

CITY           SKY/WX    TMP DP  RH WIND       PRES   REMARKS
MANKATO        CLOUDY    12   7  79 NW18G31   29.83R WCI  -5
NEW ULM        LGT SNOW  10   7  85 NW32G43   29.84S WCI -12
ST JAMES       SNOW      12  10  92 NW32G40   29.89R VSB 1/2 WCI -10
FAIRMONT       CLOUDY   N/A N/A N/A NW37G43   29.83R VSB 1/2
GLENCOE        CLOUDY    13   8  80 NW21G30   29.84S WCI  -5
FARIBAULT      LGT SNOW  12   9  85 NW15G22   29.80R WCI  -4
OWATONNA       LGT SNOW  12   9  85 NW21      29.79R WCI  -6
WASECA         LGT SNOW  12   9  85 NW22G32   29.82R WCI  -7
ALBERT LEA     LGT SNOW  12   9  85 NW14G22   29.78R WCI  -3
$$
MNZ078>079-086>088-094>096-081100-
   Southeast Minnesota

CITY           SKY/WX    TMP DP  RH WIND       PRES   REMARKS
ROCHESTER      LGT SNOW  13   9  84 NW20      29.72R FOG     WCI  -5
RED WING       FLURRIES  18   9  68 NW15      29.76R WCI   3
STANTON        FLURRIES  16  10  76 NW17G24   29.78R WCI   0
DODGE CENTER   LGT SNOW  12   9  85 NW21G28   29.73S WCI  -6
WINONA         FLURRIES  19  12  73 NW16      29.74R WCI   5
AUSTIN         LGT SNOW  12   9  85 NW20G26   29.75S WCI  -6
PRESTON        FLURRIES  13   8  81 NW14G22   29.71S WCI  -2
$$
ABBREVIATIONS USED IN REMARKS
   TC - TEMPERATURES IN CELSIUS
  WCI - WIND CHILL INDEX
   HX - HEAT INDEX
  VSB - VISIBILITY
$$



USA.gov is the U.S. government's official web portal to all federal, state and local government web resources and services.